If you wish to contribute or participate in the discussions about articles you are invited to join SKYbrary as a registered user

 Actions

Cam Ranh International Airport

From SKYbrary Wiki

VVCR /
Airport
ICAO: VVCR – IATA: CAM
Summary
Name Cam Ranh International Airport
Region Asia and Pacific
Territory Vietnam VN.gif
Location Cam Rant Bay, Khanh Hoa
Serving Nha Trang
Elevation 12.192 m
40 ft12.192 m
Coordinates 11° 59' 53.02" N, 109° 13' 9.98" E
Runways
Designator Length Width Surface ROPS
2/20 3048 m10,000 ft
46 m150.919 ft
CON yes/yes


METAR
Observation VVCR 170100Z VRB02KT 9999 FEW013 SCT050 29/27 Q1009 NOSIG
Station Cam Ranh International Airport
Date/Time 17 September 2019 01:00:00
Wind direction °
Wind speed 02 kts
Lowest cloud amount few clouds
Temperature 29°C
Dew point 27°C
Humidity 89%
QNH 1009 hPa
Weather condition n/a

Cam Ranh International Airport is located on Cam Ranh Bay in Cam Ranh, a town in Khánh Hòa Province in Vietnam. It serves the city of Nha Trang, which is [[::Distance:30 km]] from the airport.

Climatology

Tropical savannah climate (Köppen climate classification Aw)

Maps

Terrain

Loading map...

Airport Layout

Loading map...


Accidents & Serious Incidents at or in vicinity of VVCR

None on SKYbrary